シュピターラー彗星

113P/Spitaler (2022)

English version
Home page
Updated on November 26, 2022

---------------------------------------------------------------------

・ プロフィール

・ 写真集

・ 軌道要素

Epoch 2022 Jan. 21.0 TT = JDT 2459600.5
T 2022 June 1.37968 TT                                  Rudenko
q   2.1417430            (2000.0)            P               Q
n   0.13892960     Peri.  115.49208     +0.46368865     -0.88290753
a   3.6920949      Node   306.68296     +0.77618881     +0.44504416
e   0.4199112      Incl.    5.29018     +0.42722800     +0.14969969
P   7.09
From 752 observations 1890 Nov. 17-2022 Feb. 19, mean residual 1".0.
     Nongravitational parameters A1 = +0.00, A2 = +0.0000.

・ 光度変化

        m1 = 7.5 + 5 logΔ + 23.0 log r

---------------------------------------------------------------------

軌道要素はM.P.E.C. 2022-D36に掲載されたものです。
光度グラフはComet for Windowsで作成したものです。

---------------------------------------------------------------------

Copyright(C) Seiichi Yoshida (comet@aerith.net). All rights reserved.